Lapse_Rate
4.7 4.0 5.1 6.1 4.5 5.9 5.0 4.9 6.2 7.2 7.5 7.2 6.9 6.5 6.0 6.9 7.3 6.9 7.2 8.6 9.0 8.9 9.4 8.8 8.6 7.9 9.5 9.7 9.7 9.6 9.3 9.2 8.6 9.1 9.4 9.1 9.5 9.6 9.7 9.2 6.7 8.7 6.0
7.3 5.7 4.2 4.2 4.4 6.3 8.8 7.6 6.4 5.9 6.4 6.5 6.4 6.4 6.8 7.1 8.1 7.6 8.7 9.4 9.3 9.2 9.3 9.3 9.2 9.7 9.2 8.3 9.5 9.2 9.3 9.1 9.0 8.4 8.3 9.3 9.1 9.6 9.7 9.6 9.6 9.7 7.9
6.8 6.9 6.7 7.9 9.4 9.4 8.6 6.6 6.0 6.0 6.3 6.1 6.4 6.2 6.8 7.5 6.9 7.3 9.0 9.5 9.4 9.5 9.4 9.3 9.4 9.4 8.4 9.3 8.6 9.0 9.4 9.4 9.3 9.2 8.9 9.5 9.5 9.6 9.5 9.7 9.7 9.3 9.5
8.4 8.5 8.0 9.1 9.4 8.9 6.1 4.8 5.2 5.2 5.7 5.8 6.7 6.5 7.3 8.9 8.8 9.5 9.5 9.5 9.5 9.6 9.6 9.2 9.0 8.4 8.3 9.3 9.4 9.3 8.6 9.1 9.2 9.2 9.1 9.2 9.3 9.4 9.3 9.3 9.1 9.6 9.6
9.1 8.6 9.1 9.2 7.9 5.6 4.9 3.9 4.7 5.5 6.6 6.7 6.5 8.9 8.8 8.0 9.7 9.5 9.6 9.5 9.5 9.4 9.5 8.3 6.5 5.5 5.1 5.1 9.5 8.0 8.0 8.8 9.1 9.1 8.9 9.1 9.1 9.1 8.9 9.4 9.2 9.3 9.1
8.6 7.4 7.8 7.1 6.8 4.4 4.0 5.0 6.1 6.1 5.9 7.7 8.8 6.9 8.7 9.7 3.8 5.9 8.7 9.6 9.5 9.4 9.2 8.5 7.4 7.0 5.5 4.5 4.8 4.3 5.4 7.6 7.9 8.8 9.0 8.8 8.8 9.0 9.4 9.3 9.2 9.0 8.6
8.8 8.5 8.3 7.2 6.1 5.0 5.3 5.9 6.5 5.3 6.3 7.4 9.0 8.6 7.1 5.0 3.2 4.7 7.1 9.8 9.6 9.6 9.5 9.5 9.7 10.0 9.2 9.1 6.3 6.6 5.7 6.1 7.5 9.2 8.9 8.6 8.6 7.5 8.1 8.6 8.6 8.7 9.0
7.2 8.5 7.6 5.8 4.6 4.5 5.4 5.8 7.3 8.7 8.5 9.0 7.8 7.1 5.4 4.6 3.2 5.0 7.9 9.6 9.7 9.6 9.6 9.6 9.5 9.2 7.2 8.4 9.6 9.6 9.6 7.7 7.5 9.0 7.8 7.3 7.2 7.3 7.5 8.7 9.0 8.0 9.2
7.6 7.2 5.1 4.0 3.3 4.0 5.3 6.4 7.8 8.7 9.0 8.5 7.8 6.4 5.5 4.5 2.8 3.8 5.8 9.6 9.5 9.5 9.6 9.1 9.5 8.1 4.0 4.9 9.4 9.4 9.4 9.3 5.9 6.7 7.0 6.7 6.6 6.5 7.3 9.7 9.2 9.1 8.9
8.4 7.0 3.8 3.3 3.8 4.9 6.0 6.7 8.4 9.1 9.0 9.5 8.4 6.5 4.7 4.8 1.5 2.6 4.0 9.8 9.4 9.5 9.5 8.4 4.2 6.2 4.1 4.4 9.4 9.4 9.1 9.2 9.5 8.9 7.4 6.0 5.1 7.0 8.2 9.2 9.7 9.0 9.0
8.5 5.2 4.4 4.8 4.5 5.2 6.1 6.8 7.2 7.9 8.8 8.7 6.5 5.9 5.5 5.0 4.6 2.0 2.9 8.5 9.6 9.5 9.5 9.6 8.2 3.3 3.8 4.7 5.6 7.6 7.1 6.8 8.0 8.9 9.7 9.8 9.7 9.9 9.8 9.7 8.2 9.6 9.2
6.8 5.4 4.4 4.7 5.7 5.8 5.7 6.3 7.3 8.7 7.7 7.0 6.0 6.5 6.1 5.2 3.9 1.5 2.4 3.7 4.4 9.4 9.3 9.4 6.5 2.8 4.0 4.3 5.7 4.7 4.3 3.6 9.3 9.5 9.5 9.4 9.5 9.6 9.8 9.7 9.7 9.2 9.4
4.9 3.2 3.3 4.3 6.5 5.3 5.6 5.4 7.6 7.9 9.1 8.9 8.5 9.1 8.9 6.3 6.2 2.5 2.2 3.0 3.9 7.5 9.8 6.2 3.2 2.5 3.3 4.0 5.2 5.0 4.2 9.4 9.5 9.3 9.2 9.3 9.6 9.8 9.6 9.7 9.7 9.6 9.2
4.0 2.5 3.0 5.0 6.4 5.7 6.9 6.6 9.2 9.0 9.2 9.1 9.1 9.0 9.2 9.1 7.5 6.7 6.5 6.6 3.3 6.1 4.1 6.2 6.4 5.9 5.3 6.1 6.0 6.6 9.7 9.7 9.5 9.4 9.4 9.6 9.7 9.7 9.6 9.8 9.5 9.6 9.5
6.0 5.2 5.0 7.5 5.8 5.5 8.1 8.6 9.3 9.1 9.3 9.2 9.2 9.3 9.1 9.1 9.1 6.8 7.0 8.7 9.5 9.0 8.4 9.1 8.8 9.4 9.3 9.5 9.5 9.6 9.6 9.6 9.4 9.5 9.4 9.4 9.5 9.5 9.5 9.7 9.6 9.5 9.3
8.0 8.9 8.6 9.1 8.3 7.5 9.1 6.5 -3.7 1.3 0.5 0.2 0.4 6.9 9.2 7.2 1.0 0.1 0.1 1.6 1.9 2.4 8.6 9.3 9.2 9.3 9.2 9.3 9.3 9.4 9.5 7.8 9.4 9.5 9.5 9.5 9.3 9.3 9.2 9.6 9.6 9.4 9.2
6.6 9.0 9.2 8.5 9.1 8.8 9.3 8.9 8.2 1.6 -2.6 -2.1 -2.2 -0.2 2.3 2.0 -2.0 -2.3 -2.4 -1.5 0.4 2.2 9.0 9.3 9.2 9.2 9.3 9.3 9.3 9.3 9.3 9.4 7.5 9.5 9.5 9.5 9.5 9.5 9.4 9.3 9.3 9.3 9.2
8.0 4.7 9.1 9.2 9.1 9.1 9.2 9.1 9.2 8.2 5.9 5.6 -2.5 2.4 -2.9 -3.1 -3.6 -3.1 -3.2 -0.6 5.8 4.0 9.4 9.3 9.3 9.3 9.4 9.4 9.3 9.5 9.5 9.4 9.5 9.5 9.5 9.5 9.3 9.4 9.4 9.3 9.3 9.1 9.3
9.3 9.1 9.3 9.4 9.4 8.5 9.4 9.2 9.2 9.0 8.8 7.3 6.6 -0.8 -3.0 -5.2 -4.7 -4.1 -3.3 6.5 8.8 9.1 8.6 9.4 9.5 9.5 9.5 9.4 9.3 9.2 8.9 9.4 9.2 9.2 9.5 9.4 9.6 9.6 9.4 9.5 9.4 6.0 7.4
9.7 6.8 8.0 9.3 9.3 9.3 9.5 9.3 9.2 9.2 9.0 9.1 8.8 5.4 3.2 0.8 3.0 3.4 3.7 6.3 9.4 9.5 9.6 9.5 9.6 9.5 9.5 9.4 9.4 9.4 9.4 8.7 9.1 9.5 9.5 9.6 9.6 9.6 9.5 9.4 9.4 9.3 9.3
9.6 9.0 8.5 9.3 9.3 9.3 9.5 9.3 9.2 9.2 9.1 9.3 9.1 7.7 1.9 3.2 5.4 5.5 5.5 5.7 6.5 9.7 9.7 9.8 9.6 9.5 9.6 9.5 9.3 9.5 9.6 9.6 9.6 9.6 9.4 9.6 9.6 9.4 9.6 9.5 9.5 9.5 9.5
9.4 9.4 9.3 9.3 9.3 9.4 9.6 9.4 9.3 9.2 9.3 9.3 9.4 8.3 -0.6 5.4 8.8 9.3 9.3 5.8 5.1 6.8 9.7 9.4 9.6 9.2 9.8 9.7 9.3 9.6 9.6 9.5 9.6 9.6 9.7 9.8 9.6 9.6 9.6 9.5 9.5 9.4 9.5
9.5 9.4 9.2 9.3 9.4 7.0 9.0 9.4 9.5 9.4 9.4 9.3 9.5 9.3 6.3 8.0 9.4 9.8 8.9 8.1 6.9 7.3 7.7 9.0 8.5 8.4 8.9 9.2 9.6 9.8 9.7 9.0 8.1 9.3 9.8 9.7 9.5 9.6 9.6 9.4 9.4 9.4 9.4
9.4 9.5 9.2 9.3 9.5 9.3 9.3 9.6 9.3 5.7 8.8 9.4 9.4 9.4 5.7 6.4 7.8 9.2 9.6 9.0 9.0 9.9 8.6 7.0 8.4 7.7 7.0 6.8 9.3 9.3 9.2 8.4 8.7 9.5 9.7 9.6 9.5 6.5 9.6 9.6 9.5 9.4 9.4
9.5 9.3 9.2 9.1 9.2 9.1 9.3 9.3 9.4 9.4 9.4 9.3 9.0 9.2 8.8 6.2 6.4 6.0 5.7 7.6 9.8 9.3 8.0 8.1 7.6 7.2 6.7 7.0 8.0 9.5 8.0 7.1 6.7 9.3 8.0 9.0 9.6 9.4 9.5 9.6 9.5 9.5 9.4
9.4 9.4 9.3 9.3 9.3 9.4 9.4 9.3 9.3 9.4 9.6 9.2 9.2 9.3 9.3 7.2 4.7 6.5 6.2 6.5 8.4 6.9 4.5 8.8 6.7 5.9 6.2 6.3 6.8 7.8 6.6 5.6 5.7 8.2 9.1 8.5 9.3 9.6 9.7 9.6 9.6 9.5 9.5
Wind_Speed
10 9 9 6 5 8 6 6 1 1 1 3 5 7 6 5 6 7 6 5 6 7 7 8 7 8 7 7 7 6 5 3 5 5 7 8 7 8 9 13 18 14 16
15 13 9 8 9 11 9 4 3 3 5 6 8 5 6 5 5 7 7 6 7 8 8 8 9 7 7 9 7 6 7 6 4 7 6 7 7 6 4 6 10 14 15
11 12 11 14 12 9 7 5 6 4 6 7 7 5 6 5 7 7 7 6 8 8 8 8 8 9 9 7 9 8 6 6 6 5 6 6 7 7 6 4 4 7 11
18 16 14 14 10 7 7 7 6 6 6 7 5 6 7 7 7 7 7 7 8 9 9 10 10 10 10 7 8 6 6 3 4 5 6 6 7 7 8 7 7 5 5
13 12 13 11 11 9 9 7 8 6 6 7 6 7 7 7 6 7 7 7 7 8 9 10 11 12 15 16 9 9 9 9 7 6 6 6 7 6 7 7 7 8 5
15 16 12 10 11 11 10 8 9 9 7 9 8 8 6 7 9 8 2 7 7 8 8 9 8 11 12 11 11 14 11 8 8 7 6 6 8 7 7 7 7 7 6
12 10 14 12 11 10 10 10 11 12 11 9 9 8 7 8 6 7 9 7 7 6 6 5 7 6 3 7 6 10 10 9 8 6 7 8 8 8 7 8 6 7 6
10 12 13 13 12 11 11 11 12 11 11 9 9 9 8 7 4 3 5 8 8 7 7 7 7 7 7 9 4 5 7 8 8 7 7 6 6 8 8 8 5 9 2
14 13 13 13 12 14 12 12 11 11 11 10 9 9 9 8 5 5 5 9 8 8 7 7 8 7 8 11 4 4 4 4 4 6 5 5 4 1 8 7 7 7 7
15 15 14 14 14 15 13 13 11 11 11 9 10 9 9 10 7 8 7 8 8 7 7 7 14 7 5 9 3 1 2 4 4 6 7 9 10 9 4 10 8 8 7
15 15 14 15 14 13 13 11 11 10 10 9 10 9 10 11 10 6 4 5 7 7 7 7 6 5 5 6 6 4 2 6 5 5 2 4 4 5 7 8 7 7 6
15 15 15 14 12 12 14 12 11 10 10 10 10 9 9 9 8 6 3 7 7 4 5 7 7 6 4 0 4 2 9 9 5 3 3 4 4 4 4 5 2 4 2
17 15 14 14 13 13 13 13 11 11 11 11 10 10 9 9 8 5 2 3 4 5 5 10 14 10 6 5 4 9 11 3 4 4 4 3 3 3 5 4 5 5 6
17 15 15 15 14 15 12 12 11 12 11 11 11 10 10 10 10 10 8 6 4 4 9 8 8 5 8 2 7 7 1 3 3 4 4 4 4 4 4 4 5 6 6
18 17 16 15 16 14 12 12 12 12 12 12 11 11 12 12 11 13 12 10 9 9 9 8 7 8 8 6 4 2 2 1 2 3 3 4 4 4 4 5 5 6 6
19 16 16 14 14 13 13 8 10 4 10 10 8 6 10 8 16 16 12 11 8 14 8 8 8 7 5 4 4 3 4 5 2 3 3 3 4 4 5 5 5 5 6
19 18 15 15 15 14 13 13 13 3 7 9 8 6 4 13 20 18 15 11 8 7 9 9 7 7 7 6 5 5 3 4 2 5 2 3 4 4 4 5 5 5 6
20 18 15 15 15 15 14 14 13 14 13 12 4 4 8 17 14 16 14 11 5 6 11 10 9 9 8 6 6 5 4 4 4 2 3 3 2 3 4 5 5 5 6
17 16 16 15 15 15 14 15 14 14 13 13 12 5 8 7 10 12 16 12 12 12 13 12 10 10 9 8 7 4 3 4 2 1 3 2 3 4 3 5 5 1 3
17 18 16 15 14 15 14 15 15 14 14 13 13 14 13 10 11 12 12 13 12 12 12 12 10 10 9 8 7 6 6 6 7 6 5 3 3 3 4 4 4 6 7
15 15 17 15 15 15 14 15 15 15 14 14 15 14 18 16 15 15 14 12 12 12 11 11 10 8 8 8 7 8 8 8 7 4 3 5 3 4 3 3 4 5 6
16 15 17 16 15 15 15 15 15 15 15 15 14 15 23 15 14 14 13 13 13 13 10 10 9 9 10 9 8 9 8 7 6 5 5 5 4 5 4 3 3 4 6
16 17 16 16 15 15 15 15 16 16 16 15 15 14 16 16 15 15 13 13 13 12 12 9 11 10 13 14 15 13 10 6 4 6 8 6 5 5 4 3 3 4 5
18 18 17 17 15 16 16 16 16 16 16 16 14 12 15 15 16 15 13 12 12 13 15 14 12 14 14 18 18 18 16 13 11 13 9 6 6 3 5 4 4 3 6
18 17 17 17 17 16 15 16 16 16 16 14 14 15 15 17 16 17 15 15 15 15 16 15 19 20 21 19 21 21 17 16 10 14 12 8 9 8 5 4 4 4 5
19 18 17 15 15 15 15 15 15 15 16 16 13 13 15 12 15 16 16 16 14 17 21 15 19 21 21 23 22 24 24 25 18 12 10 9 6 6 6 6 5 3 4
Wind_Direction
165 175 188 202 182 187 193 210 178 124 156 101 83 87 93 83 72 74 74 61 64 62 59 53 56 22 14 40 25 27 62 334 84 100 107 56 55 29 17 2 156 110 93
172 179 178 194 211 206 212 161 179 140 109 88 96 99 92 85 79 73 57 77 76 68 63 61 47 38 40 10 82 52 32 37 51 78 14 87 48 61 29 50 343 19 107
157 181 185 201 209 221 172 191 157 131 112 107 94 112 104 120 107 94 97 93 84 78 71 65 58 60 48 51 38 21 55 32 35 59 83 43 71 13 19 67 54 53 61
179 189 198 211 198 177 176 146 149 116 105 105 123 138 140 123 112 114 110 107 101 82 70 62 54 49 37 35 47 54 13 68 70 63 58 52 29 47 6 13 21 53 34
183 178 193 195 160 168 153 158 128 129 125 132 148 143 129 134 125 129 125 115 104 94 90 91 75 69 55 44 49 40 15 21 24 49 49 55 33 12 17 359 16 349 124
169 181 175 171 155 150 150 164 152 131 149 167 149 144 169 95 57 24 83 117 114 115 117 115 118 109 79 73 77 69 48 34 48 11 45 43 41 13 14 351 10 354 348
184 174 167 154 144 147 161 156 160 157 162 161 148 145 109 120 64 31 343 118 116 115 127 136 119 98 131 115 127 121 85 42 10 45 49 33 36 10 351 331 1 318 320
179 168 150 151 152 159 157 166 167 164 162 156 150 134 133 117 115 87 67 118 109 99 93 81 81 70 36 7 53 60 72 62 39 46 54 45 52 15 350 306 354 292 303
177 159 155 151 157 160 174 169 167 164 160 158 146 144 144 144 179 225 252 134 123 118 106 66 102 81 15 357 26 49 60 84 122 110 119 161 174 32 20 353 360 354 359
179 163 158 160 165 173 171 168 167 164 160 153 144 153 145 155 201 239 265 135 149 132 125 104 58 86 44 16 28 47 102 81 8 171 208 225 217 219 68 31 0 359 360
169 160 167 166 168 167 165 168 163 169 150 137 154 153 163 166 192 248 317 253 155 176 143 156 122 104 77 42 19 35 9 315 221 251 59 42 24 27 40 26 26 350 13
154 169 163 163 167 161 166 164 165 159 152 155 156 168 165 171 186 221 343 339 11 192 154 113 121 152 148 67 302 322 285 285 267 10 29 34 8 22 12 6 342 350 304
161 161 159 162 166 162 168 167 168 163 167 174 175 178 165 177 179 176 164 313 2 321 131 114 136 179 185 181 201 246 265 300 2 11 26 355 359 33 299 9 326 316 264
167 162 162 170 161 170 173 175 175 180 182 185 185 182 173 181 183 184 194 197 215 188 121 133 160 219 228 181 178 233 199 43 356 18 348 343 335 344 1 355 345 343 330
170 169 168 173 172 173 184 182 187 190 193 192 191 190 181 190 189 178 186 189 190 200 175 163 196 213 205 199 185 165 208 210 222 34 318 344 335 333 4 345 347 337 338
172 176 180 173 180 177 184 175 44 91 114 81 68 197 183 197 151 142 126 123 130 149 198 194 210 204 212 189 202 202 184 177 74 295 310 327 326 339 13 322 339 332 334
175 175 178 177 182 180 186 185 188 117 69 90 73 53 305 150 142 143 142 139 140 164 219 217 212 202 206 199 213 205 199 117 142 247 285 316 337 335 329 331 330 331 344
182 169 176 185 185 182 185 189 193 190 192 193 161 170 138 142 150 149 143 144 180 210 219 228 217 216 214 207 205 202 178 167 206 230 273 290 305 319 312 318 318 3 340
188 178 183 190 189 185 184 189 197 191 195 191 184 171 121 99 141 156 165 196 205 207 211 229 219 219 218 206 202 169 159 206 192 289 269 288 299 295 318 311 330 287 285
198 181 190 187 188 189 191 191 196 194 190 189 190 191 174 157 183 190 197 207 215 214 211 218 229 222 221 206 202 177 196 199 190 199 204 237 267 285 299 318 325 328 326
195 183 197 187 190 193 197 197 198 197 193 196 196 190 179 187 192 197 198 206 217 222 215 211 210 210 214 221 210 200 207 232 210 187 224 224 212 264 254 283 307 324 325
198 185 191 202 194 193 200 199 201 201 197 200 201 185 163 193 205 204 206 204 209 222 222 210 212 196 209 211 207 210 225 225 208 205 224 224 212 217 243 271 304 319 319
203 190 186 208 204 193 202 205 203 203 203 204 205 189 181 193 210 212 203 207 209 213 215 215 212 208 200 197 206 208 223 207 165 217 222 206 202 221 227 263 299 309 336
209 198 188 205 211 201 202 209 209 209 206 203 205 206 177 195 204 214 212 209 217 208 210 212 213 209 197 196 194 204 202 180 165 240 221 204 201 145 227 235 266 321 298
215 206 197 198 211 211 204 209 212 208 207 208 199 201 191 190 201 205 203 215 207 204 207 207 207 208 201 192 195 190 170 136 168 259 169 225 220 186 208 226 246 296 314
230 210 208 201 205 210 213 205 212 214 209 207 210 205 213 193 202 210 210 211 214 216 205 198 196 203 199 196 187 184 161 157 181 225 193 216 216 206 214 220 222 264 318